Year,Month,Day,Hour,Minute,Value (Times are PST for temperature in C)
2023,05,03,00,00,16.80
2023,05,03,00,01,16.80
2023,05,03,00,02,16.80
2023,05,03,00,03,16.80
2023,05,03,00,04,16.80
2023,05,03,00,05,16.80
2023,05,03,00,06,16.80
2023,05,03,00,07,16.80
2023,05,03,00,08,16.80
2023,05,03,00,09,16.80
2023,05,03,00,10,16.80
2023,05,03,00,11,16.80
2023,05,03,00,12,16.80
2023,05,03,00,13,16.80
2023,05,03,00,14,16.80
2023,05,03,00,15,16.80
2023,05,03,00,16,16.80
2023,05,03,00,17,16.80
2023,05,03,00,18,16.80
2023,05,03,00,19,16.80
2023,05,03,00,20,16.80
2023,05,03,00,21,16.80
2023,05,03,00,22,16.80
2023,05,03,00,23,16.80
2023,05,03,00,24,16.70
2023,05,03,00,25,16.70
2023,05,03,00,26,16.70
2023,05,03,00,27,16.70
2023,05,03,00,28,16.70
2023,05,03,00,29,16.60
2023,05,03,00,30,16.60
2023,05,03,00,31,16.70
2023,05,03,00,32,16.70
2023,05,03,00,33,16.70
2023,05,03,00,34,16.70
2023,05,03,00,35,16.70
2023,05,03,00,36,16.70
2023,05,03,00,37,16.70
2023,05,03,00,38,16.70
2023,05,03,00,39,16.70
2023,05,03,00,40,16.70
2023,05,03,00,41,16.70
2023,05,03,00,42,16.70
2023,05,03,00,43,16.70
2023,05,03,00,44,16.70
2023,05,03,00,45,16.70
2023,05,03,00,46,16.60
2023,05,03,00,47,16.60
2023,05,03,00,48,16.60
2023,05,03,00,49,16.60
2023,05,03,00,50,16.60
2023,05,03,00,51,16.60
2023,05,03,00,52,16.70
2023,05,03,00,53,16.70
2023,05,03,00,54,16.70
2023,05,03,00,55,16.70
2023,05,03,00,56,16.70
2023,05,03,00,57,16.70
2023,05,03,00,58,16.80
2023,05,03,00,59,16.80
2023,05,03,01,00,16.80
2023,05,03,01,01,16.80
2023,05,03,01,02,16.90
2023,05,03,01,03,16.90
2023,05,03,01,04,16.90
2023,05,03,01,05,16.90
2023,05,03,01,06,16.90
2023,05,03,01,07,16.90
2023,05,03,01,08,16.90
2023,05,03,01,09,16.90
2023,05,03,01,10,16.80
2023,05,03,01,11,16.80
2023,05,03,01,12,16.80
2023,05,03,01,13,16.80
2023,05,03,01,14,16.80
2023,05,03,01,15,16.80
2023,05,03,01,16,16.80
2023,05,03,01,17,16.80
2023,05,03,01,18,16.80
2023,05,03,01,19,16.80
2023,05,03,01,20,16.80
2023,05,03,01,21,16.80
2023,05,03,01,22,16.80
2023,05,03,01,23,16.80
2023,05,03,01,24,16.80
2023,05,03,01,25,16.80
2023,05,03,01,26,16.80
2023,05,03,01,27,16.80
2023,05,03,01,28,16.80
2023,05,03,01,29,16.80
2023,05,03,01,30,16.80
2023,05,03,01,31,16.80
2023,05,03,01,32,16.70
2023,05,03,01,33,16.70
2023,05,03,01,34,16.70
2023,05,03,01,35,16.70
2023,05,03,01,36,16.70
2023,05,03,01,37,16.70
2023,05,03,01,38,16.70
2023,05,03,01,39,16.70
2023,05,03,01,40,16.70
2023,05,03,01,41,16.70
2023,05,03,01,42,16.70
2023,05,03,01,43,16.70
2023,05,03,01,44,16.70
2023,05,03,01,45,16.70
2023,05,03,01,46,16.70
2023,05,03,01,47,16.70
2023,05,03,01,48,16.70
2023,05,03,01,49,16.70
2023,05,03,01,50,16.70
2023,05,03,01,51,16.70
2023,05,03,01,52,16.70
2023,05,03,01,53,16.70
2023,05,03,01,54,16.70
2023,05,03,01,55,16.70
2023,05,03,01,56,16.70
2023,05,03,01,57,16.60
2023,05,03,01,58,16.60
2023,05,03,01,59,16.60
2023,05,03,02,00,16.60
2023,05,03,02,01,16.50
2023,05,03,02,02,16.50
2023,05,03,02,03,16.40
2023,05,03,02,04,16.40
2023,05,03,02,05,16.40
2023,05,03,02,06,16.30
2023,05,03,02,07,16.30
2023,05,03,02,08,16.30
2023,05,03,02,09,16.30
2023,05,03,02,10,16.30
2023,05,03,02,11,16.30
2023,05,03,02,12,16.20
2023,05,03,02,13,16.20
2023,05,03,02,14,16.20
2023,05,03,02,15,16.10
2023,05,03,02,16,16.10
2023,05,03,02,17,16.10
2023,05,03,02,18,16.00
2023,05,03,02,19,15.90
2023,05,03,02,20,15.90
2023,05,03,02,21,15.90
2023,05,03,02,22,15.80
2023,05,03,02,23,15.80
2023,05,03,02,24,15.70
2023,05,03,02,25,15.70
2023,05,03,02,26,15.70
2023,05,03,02,27,15.60
2023,05,03,02,28,15.60
2023,05,03,02,29,15.60
2023,05,03,02,30,15.60
2023,05,03,02,31,15.50
2023,05,03,02,32,15.50
2023,05,03,02,33,15.50
2023,05,03,02,34,15.40
2023,05,03,02,35,15.40
2023,05,03,02,36,15.40
2023,05,03,02,37,15.40
2023,05,03,02,38,15.40
2023,05,03,02,39,15.40
2023,05,03,02,40,15.40
2023,05,03,02,41,15.40
2023,05,03,02,42,15.40
2023,05,03,02,43,15.40
2023,05,03,02,44,15.40
2023,05,03,02,45,15.40
2023,05,03,02,46,15.40
2023,05,03,02,47,15.50
2023,05,03,02,48,15.50
2023,05,03,02,49,15.50
2023,05,03,02,50,15.50
2023,05,03,02,51,15.40
2023,05,03,02,52,15.40
2023,05,03,02,53,15.40
2023,05,03,02,54,15.40
2023,05,03,02,55,15.40
2023,05,03,02,56,15.40
2023,05,03,02,57,15.40
2023,05,03,02,58,15.50
2023,05,03,02,59,15.50
2023,05,03,03,00,15.50
2023,05,03,03,01,15.60
2023,05,03,03,02,15.60
2023,05,03,03,03,15.70
2023,05,03,03,04,15.70
2023,05,03,03,05,15.70
2023,05,03,03,06,15.70
2023,05,03,03,07,15.80
2023,05,03,03,08,15.80
2023,05,03,03,09,15.80
2023,05,03,03,10,15.80
2023,05,03,03,11,15.80
2023,05,03,03,12,15.80
2023,05,03,03,13,15.70
2023,05,03,03,14,15.70
2023,05,03,03,15,15.70
2023,05,03,03,16,15.70
2023,05,03,03,17,15.70
2023,05,03,03,18,15.70
2023,05,03,03,19,15.70
2023,05,03,03,20,15.60
2023,05,03,03,21,15.60
2023,05,03,03,22,15.60
2023,05,03,03,23,15.50
2023,05,03,03,24,15.50
2023,05,03,03,25,15.40
2023,05,03,03,26,15.40
2023,05,03,03,27,15.30
2023,05,03,03,28,15.30
2023,05,03,03,29,15.20
2023,05,03,03,30,15.10
2023,05,03,03,31,15.00
2023,05,03,03,32,15.00
2023,05,03,03,33,15.00
2023,05,03,03,34,15.00
2023,05,03,03,35,15.00
2023,05,03,03,36,15.00
2023,05,03,03,37,14.90
2023,05,03,03,38,14.80
2023,05,03,03,39,14.70
2023,05,03,03,40,14.70
2023,05,03,03,41,14.70
2023,05,03,03,42,14.60
2023,05,03,03,43,14.60
2023,05,03,03,44,14.60
2023,05,03,03,45,14.50
2023,05,03,03,46,14.50
2023,05,03,03,47,14.40
2023,05,03,03,48,14.40
2023,05,03,03,49,14.40
2023,05,03,03,50,14.30
2023,05,03,03,51,14.30
2023,05,03,03,52,14.30
2023,05,03,03,53,14.20
2023,05,03,03,54,14.20
2023,05,03,03,55,14.10
2023,05,03,03,56,14.10
2023,05,03,03,57,14.00
2023,05,03,03,58,14.00
2023,05,03,03,59,13.90
2023,05,03,04,00,13.90
2023,05,03,04,01,13.80
2023,05,03,04,02,13.80
2023,05,03,04,03,13.80
2023,05,03,04,04,13.70
2023,05,03,04,05,13.70
2023,05,03,04,06,13.60
2023,05,03,04,07,13.60
2023,05,03,04,08,13.50
2023,05,03,04,09,13.50
2023,05,03,04,10,13.40
2023,05,03,04,11,13.40
2023,05,03,04,12,13.30
2023,05,03,04,13,13.30
2023,05,03,04,14,13.30
2023,05,03,04,15,13.30
2023,05,03,04,16,13.20
2023,05,03,04,17,13.20
2023,05,03,04,18,13.10
2023,05,03,04,19,13.10
2023,05,03,04,20,13.10
2023,05,03,04,21,13.10
2023,05,03,04,22,13.00
2023,05,03,04,23,13.00
2023,05,03,04,24,12.90
2023,05,03,04,25,12.90
2023,05,03,04,26,12.90
2023,05,03,04,27,12.80
2023,05,03,04,28,12.80
2023,05,03,04,29,12.80
2023,05,03,04,30,12.70
2023,05,03,04,31,12.70
2023,05,03,04,32,12.70
2023,05,03,04,33,12.70
2023,05,03,04,34,12.60
2023,05,03,04,35,12.60
2023,05,03,04,36,12.60
2023,05,03,04,37,12.50
2023,05,03,04,38,12.50
2023,05,03,04,39,12.50
2023,05,03,04,40,12.40
2023,05,03,04,41,12.40
2023,05,03,04,42,12.40
2023,05,03,04,43,12.40
2023,05,03,04,44,12.30
2023,05,03,04,45,12.30
2023,05,03,04,46,12.30
2023,05,03,04,47,12.30
2023,05,03,04,48,12.30
2023,05,03,04,49,12.20
2023,05,03,04,50,12.20
2023,05,03,04,51,12.20
2023,05,03,04,52,12.20
2023,05,03,04,53,12.20
2023,05,03,04,54,12.20
2023,05,03,04,55,12.20
2023,05,03,04,56,12.10
2023,05,03,04,57,12.10
2023,05,03,04,58,12.10
2023,05,03,04,59,12.10
2023,05,03,05,00,12.10
2023,05,03,05,01,12.00
2023,05,03,05,02,12.00
2023,05,03,05,03,11.90
2023,05,03,05,04,11.90
2023,05,03,05,05,11.90
2023,05,03,05,06,11.90
2023,05,03,05,07,11.80
2023,05,03,05,08,11.80
2023,05,03,05,09,11.80
2023,05,03,05,10,11.80
2023,05,03,05,11,11.80
2023,05,03,05,12,11.70
2023,05,03,05,13,11.70
2023,05,03,05,14,11.70
2023,05,03,05,15,11.70
2023,05,03,05,16,11.70
2023,05,03,05,17,11.70
2023,05,03,05,18,11.60
2023,05,03,05,19,11.60
2023,05,03,05,20,11.60
2023,05,03,05,21,11.60
2023,05,03,05,22,11.60
2023,05,03,05,23,11.60
2023,05,03,05,24,11.60
2023,05,03,05,25,11.60
2023,05,03,05,26,11.50
2023,05,03,05,27,11.50
2023,05,03,05,28,11.50
2023,05,03,05,29,11.50
2023,05,03,05,30,11.40
2023,05,03,05,31,11.40
2023,05,03,05,32,11.40
2023,05,03,05,33,11.40
2023,05,03,05,34,11.40
2023,05,03,05,35,11.40
2023,05,03,05,36,11.30
2023,05,03,05,37,11.30
2023,05,03,05,38,11.30
2023,05,03,05,39,11.30
2023,05,03,05,40,11.30
2023,05,03,05,41,11.20
2023,05,03,05,42,11.20
2023,05,03,05,43,11.20
2023,05,03,05,44,11.20
2023,05,03,05,45,11.20
2023,05,03,05,46,11.20
2023,05,03,05,47,11.10
2023,05,03,05,48,11.10
2023,05,03,05,49,11.10
2023,05,03,05,50,11.10
2023,05,03,05,51,11.00
2023,05,03,05,52,11.00
2023,05,03,05,53,11.00
2023,05,03,05,54,10.90
2023,05,03,05,55,10.90
2023,05,03,05,56,10.90
2023,05,03,05,57,10.90
2023,05,03,05,58,10.80
2023,05,03,05,59,10.80
2023,05,03,06,00,10.80
2023,05,03,06,01,10.80
2023,05,03,06,02,10.80
2023,05,03,06,03,10.80
2023,05,03,06,04,10.70
2023,05,03,06,05,10.70
2023,05,03,06,06,10.70
2023,05,03,06,07,10.70
2023,05,03,06,08,10.70
2023,05,03,06,09,10.70
2023,05,03,06,10,10.70
2023,05,03,06,11,10.70
2023,05,03,06,12,10.60
2023,05,03,06,13,10.60
2023,05,03,06,14,10.60
2023,05,03,06,15,10.60
2023,05,03,06,16,10.60
2023,05,03,06,17,10.60
2023,05,03,06,18,10.60
2023,05,03,06,19,10.60
2023,05,03,06,20,10.70
2023,05,03,06,21,10.70
2023,05,03,06,22,10.70
2023,05,03,06,23,10.70
2023,05,03,06,24,10.70
2023,05,03,06,25,10.70
2023,05,03,06,26,10.70
2023,05,03,06,27,10.70
2023,05,03,06,28,10.70
2023,05,03,06,29,10.70
2023,05,03,06,30,10.70
2023,05,03,06,31,10.60
2023,05,03,06,32,10.70
2023,05,03,06,33,10.70
2023,05,03,06,34,10.70
2023,05,03,06,35,10.60
2023,05,03,06,36,10.60
2023,05,03,06,37,10.70
2023,05,03,06,38,10.70
2023,05,03,06,39,10.70
2023,05,03,06,40,10.70
2023,05,03,06,41,10.70
2023,05,03,06,42,10.70
2023,05,03,06,43,10.70
2023,05,03,06,44,10.70
2023,05,03,06,45,10.70
2023,05,03,06,46,10.70
2023,05,03,06,47,10.70
2023,05,03,06,48,10.70
2023,05,03,06,49,10.70
2023,05,03,06,50,10.70
2023,05,03,06,51,10.70
2023,05,03,06,52,10.70
2023,05,03,06,53,10.70
2023,05,03,06,54,10.70
2023,05,03,06,55,10.70
2023,05,03,06,56,10.70
2023,05,03,06,57,10.70
2023,05,03,06,58,10.70
2023,05,03,06,59,10.70
2023,05,03,07,00,10.70
2023,05,03,07,01,10.70
2023,05,03,07,02,10.70
2023,05,03,07,03,10.70
2023,05,03,07,04,10.70
2023,05,03,07,05,10.70
2023,05,03,07,06,10.80
2023,05,03,07,07,10.80
2023,05,03,07,08,10.80
2023,05,03,07,09,10.80
2023,05,03,07,10,10.80
2023,05,03,07,11,10.80
2023,05,03,07,12,10.80
2023,05,03,07,13,10.80
2023,05,03,07,14,10.90
2023,05,03,07,15,10.90
2023,05,03,07,16,10.90
2023,05,03,07,17,10.90
2023,05,03,07,18,10.90
2023,05,03,07,19,10.90
2023,05,03,07,20,10.90
2023,05,03,07,21,11.00
2023,05,03,07,22,11.00
2023,05,03,07,23,11.00
2023,05,03,07,24,11.10
2023,05,03,07,25,11.10
2023,05,03,07,26,11.10
2023,05,03,07,27,11.20
2023,05,03,07,28,11.20
2023,05,03,07,29,11.30
2023,05,03,07,30,11.30
2023,05,03,07,31,11.40
2023,05,03,07,32,11.40
2023,05,03,07,33,11.40
2023,05,03,07,34,11.50
2023,05,03,07,35,11.50
2023,05,03,07,36,11.60
2023,05,03,07,37,11.60
2023,05,03,07,38,11.70
2023,05,03,07,39,11.70
2023,05,03,07,40,11.80
2023,05,03,07,41,11.80
2023,05,03,07,42,11.90
2023,05,03,07,43,11.90
2023,05,03,07,44,11.90
2023,05,03,07,45,12.00
2023,05,03,07,46,12.00
2023,05,03,07,47,12.10
2023,05,03,07,48,12.10
2023,05,03,07,49,12.10
2023,05,03,07,50,12.10
2023,05,03,07,51,12.20
2023,05,03,07,52,12.20
2023,05,03,07,53,12.20
2023,05,03,07,54,12.20
2023,05,03,07,55,12.30
2023,05,03,07,56,12.30
2023,05,03,07,57,12.30
2023,05,03,07,58,12.40
2023,05,03,07,59,12.40
2023,05,03,08,00,12.40
2023,05,03,08,01,12.50
2023,05,03,08,02,12.50
2023,05,03,08,03,12.60
2023,05,03,08,04,12.60
2023,05,03,08,05,12.70
2023,05,03,08,06,12.70
2023,05,03,08,07,12.70
2023,05,03,08,08,12.80
2023,05,03,08,09,12.80
2023,05,03,08,10,12.80
2023,05,03,08,11,12.90
2023,05,03,08,12,12.90
2023,05,03,08,13,13.00
2023,05,03,08,14,13.00
2023,05,03,08,15,13.10
2023,05,03,08,16,13.20
2023,05,03,08,17,13.20
2023,05,03,08,18,13.30
2023,05,03,08,19,13.40
2023,05,03,08,20,13.40
2023,05,03,08,21,13.50
2023,05,03,08,22,13.60
2023,05,03,08,23,13.70
2023,05,03,08,24,13.70
2023,05,03,08,25,13.80
2023,05,03,08,26,13.90
2023,05,03,08,27,13.90
2023,05,03,08,28,14.00
2023,05,03,08,29,14.10
2023,05,03,08,30,14.20
2023,05,03,08,31,14.30
2023,05,03,08,32,14.40
2023,05,03,08,33,14.50
2023,05,03,08,34,14.60
2023,05,03,08,35,14.70
2023,05,03,08,36,14.80
2023,05,03,08,37,15.00
2023,05,03,08,38,15.00
2023,05,03,08,39,15.00
2023,05,03,08,40,15.00
2023,05,03,08,41,15.00
2023,05,03,08,42,15.10
2023,05,03,08,43,15.20
2023,05,03,08,44,15.20
2023,05,03,08,45,15.30
2023,05,03,08,46,15.30
2023,05,03,08,47,15.30
2023,05,03,08,48,15.40
2023,05,03,08,49,15.40
2023,05,03,08,50,15.50
2023,05,03,08,51,15.50
2023,05,03,08,52,15.60
2023,05,03,08,53,15.60
2023,05,03,08,54,15.70
2023,05,03,08,55,15.70
2023,05,03,08,56,15.80
2023,05,03,08,57,15.80
2023,05,03,08,58,15.90
2023,05,03,08,59,15.90
2023,05,03,09,00,16.00
2023,05,03,09,01,16.00
2023,05,03,09,02,16.10
2023,05,03,09,03,16.20
2023,05,03,09,04,16.20
2023,05,03,09,05,16.20
2023,05,03,09,06,16.30
2023,05,03,09,07,16.30
2023,05,03,09,08,16.30
2023,05,03,09,09,16.30
2023,05,03,09,10,16.30
2023,05,03,09,11,16.30
2023,05,03,09,12,16.30
2023,05,03,09,13,16.30
2023,05,03,09,14,16.30
2023,05,03,09,15,16.30
2023,05,03,09,16,16.30
2023,05,03,09,17,16.40
2023,05,03,09,18,16.40
2023,05,03,09,19,16.50
2023,05,03,09,20,16.60
2023,05,03,09,21,16.60
2023,05,03,09,22,16.70
2023,05,03,09,23,16.70
2023,05,03,09,24,16.70
2023,05,03,09,25,16.80
2023,05,03,09,26,16.80
2023,05,03,09,27,16.80
2023,05,03,09,28,16.90
2023,05,03,09,29,17.00
2023,05,03,09,30,17.00
2023,05,03,09,31,17.10
2023,05,03,09,32,17.20
2023,05,03,09,33,17.20
2023,05,03,09,34,17.30
2023,05,03,09,35,17.30
2023,05,03,09,36,17.30
2023,05,03,09,37,17.40
2023,05,03,09,38,17.40
2023,05,03,09,39,17.40
2023,05,03,09,40,17.50
2023,05,03,09,41,17.50
2023,05,03,09,42,17.60
2023,05,03,09,43,17.70
2023,05,03,09,44,17.70
2023,05,03,09,45,17.70
2023,05,03,09,46,17.80
2023,05,03,09,47,17.80
2023,05,03,09,48,17.80
2023,05,03,09,49,17.80
2023,05,03,09,50,17.80
2023,05,03,09,51,17.90
2023,05,03,09,52,17.90
2023,05,03,09,53,18.00
2023,05,03,09,54,18.10
2023,05,03,09,55,18.10
2023,05,03,09,56,18.20
2023,05,03,09,57,18.30
2023,05,03,09,58,18.30
2023,05,03,09,59,18.30
2023,05,03,10,00,18.30
2023,05,03,10,01,18.40
2023,05,03,10,02,18.40
2023,05,03,10,03,18.50
2023,05,03,10,04,18.50
2023,05,03,10,05,18.50
2023,05,03,10,06,18.60
2023,05,03,10,07,18.60
2023,05,03,10,08,18.60
2023,05,03,10,09,18.60
2023,05,03,10,10,18.60
2023,05,03,10,11,18.60
2023,05,03,10,12,18.50
2023,05,03,10,13,18.50
2023,05,03,10,14,18.50
2023,05,03,10,15,18.50
2023,05,03,10,16,18.50
2023,05,03,10,17,18.50
2023,05,03,10,18,18.50
2023,05,03,10,19,18.50
2023,05,03,10,20,18.60
2023,05,03,10,21,18.60
2023,05,03,10,22,18.50
2023,05,03,10,23,18.60
2023,05,03,10,24,18.50
2023,05,03,10,25,18.60
2023,05,03,10,26,18.60
2023,05,03,10,27,18.60
2023,05,03,10,28,18.60
2023,05,03,10,29,18.60
2023,05,03,10,30,18.70
2023,05,03,10,31,18.70
2023,05,03,10,32,18.70
2023,05,03,10,33,18.70
2023,05,03,10,34,18.70
2023,05,03,10,35,18.70
2023,05,03,10,36,18.80
2023,05,03,10,37,18.70
2023,05,03,10,38,18.70
2023,05,03,10,39,18.70
2023,05,03,10,40,18.80
2023,05,03,10,41,18.80
2023,05,03,10,42,18.80
2023,05,03,10,43,18.80
2023,05,03,10,44,18.90
2023,05,03,10,45,18.90
2023,05,03,10,46,19.00
2023,05,03,10,47,19.10
2023,05,03,10,48,19.10
2023,05,03,10,49,19.20
2023,05,03,10,50,19.20
2023,05,03,10,51,19.30
2023,05,03,10,52,19.30
2023,05,03,10,53,19.30
2023,05,03,10,54,19.30
2023,05,03,10,55,19.30
2023,05,03,10,56,19.30
2023,05,03,10,57,19.40
2023,05,03,10,58,19.50
2023,05,03,10,59,19.60
2023,05,03,11,00,19.60
2023,05,03,11,01,19.70
2023,05,03,11,02,19.80
2023,05,03,11,03,19.80
2023,05,03,11,04,19.90
2023,05,03,11,05,19.90
2023,05,03,11,06,19.90
2023,05,03,11,07,20.00
2023,05,03,11,08,20.00
2023,05,03,11,09,19.90
2023,05,03,11,10,19.70
2023,05,03,11,11,19.50
2023,05,03,11,12,19.40
2023,05,03,11,13,19.30
2023,05,03,11,14,19.30
2023,05,03,11,15,19.30
2023,05,03,11,16,19.40
2023,05,03,11,17,19.40
2023,05,03,11,18,19.50
2023,05,03,11,19,19.50
2023,05,03,11,20,19.50
2023,05,03,11,21,19.60
2023,05,03,11,22,19.60
2023,05,03,11,23,19.70
2023,05,03,11,24,19.70
2023,05,03,11,25,19.80
2023,05,03,11,26,19.80
2023,05,03,11,27,19.80
2023,05,03,11,28,19.90
2023,05,03,11,29,20.00
2023,05,03,11,30,20.00
2023,05,03,11,31,20.10
2023,05,03,11,32,20.00
2023,05,03,11,33,20.00
2023,05,03,11,34,20.00
2023,05,03,11,35,20.00
2023,05,03,11,36,20.00
2023,05,03,11,37,19.90
2023,05,03,11,38,20.00
2023,05,03,11,39,20.00
2023,05,03,11,40,20.10
2023,05,03,11,41,20.20
2023,05,03,11,42,20.20
2023,05,03,11,43,20.20
2023,05,03,11,44,20.20
2023,05,03,11,45,20.30
2023,05,03,11,46,20.30
2023,05,03,11,47,20.20
2023,05,03,11,48,20.00
2023,05,03,11,49,19.90
2023,05,03,11,50,19.90
2023,05,03,11,51,20.00
2023,05,03,11,52,20.10
2023,05,03,11,53,20.20
2023,05,03,11,54,20.20
2023,05,03,11,55,20.10
2023,05,03,11,56,20.10
2023,05,03,11,57,20.00
2023,05,03,11,58,19.90
2023,05,03,11,59,19.80
2023,05,03,12,00,19.70
2023,05,03,12,01,19.80
2023,05,03,12,02,19.80
2023,05,03,12,03,19.90
2023,05,03,12,04,20.00
2023,05,03,12,05,20.00
2023,05,03,12,06,20.10
2023,05,03,12,07,20.00
2023,05,03,12,08,19.80
2023,05,03,12,09,19.70
2023,05,03,12,10,19.60
2023,05,03,12,11,19.60
2023,05,03,12,12,19.70
2023,05,03,12,13,19.70
2023,05,03,12,14,19.70
2023,05,03,12,15,19.80
2023,05,03,12,16,19.80
2023,05,03,12,17,19.70
2023,05,03,12,18,19.70
2023,05,03,12,19,19.70
2023,05,03,12,20,19.80
2023,05,03,12,21,19.80
2023,05,03,12,22,19.90
2023,05,03,12,23,20.00
2023,05,03,12,24,20.00
2023,05,03,12,25,20.10
2023,05,03,12,26,20.10
2023,05,03,12,27,20.20
2023,05,03,12,28,20.20
2023,05,03,12,29,20.30
2023,05,03,12,30,20.30
2023,05,03,12,31,20.30
2023,05,03,12,32,20.30
2023,05,03,12,33,20.30
2023,05,03,12,34,20.40
2023,05,03,12,35,20.40
2023,05,03,12,36,20.50
2023,05,03,12,37,20.60
2023,05,03,12,38,20.60
2023,05,03,12,39,20.70
2023,05,03,12,40,20.70
2023,05,03,12,41,20.60
2023,05,03,12,42,20.60
2023,05,03,12,43,20.40
2023,05,03,12,44,20.50
2023,05,03,12,45,20.60
2023,05,03,12,46,20.60
2023,05,03,12,47,20.60
2023,05,03,12,48,20.70
2023,05,03,12,49,20.70
2023,05,03,12,50,20.70
2023,05,03,12,51,20.70
2023,05,03,12,52,20.80
2023,05,03,12,53,20.90
2023,05,03,12,54,20.90
2023,05,03,12,55,21.00
2023,05,03,12,56,21.00
2023,05,03,12,57,21.00
2023,05,03,12,58,21.10
2023,05,03,12,59,21.10
2023,05,03,13,00,21.10
2023,05,03,13,01,21.10
2023,05,03,13,02,21.00
2023,05,03,13,03,20.90
2023,05,03,13,04,20.90
2023,05,03,13,05,20.90
2023,05,03,13,06,21.00
2023,05,03,13,07,21.10
2023,05,03,13,08,21.20
2023,05,03,13,09,21.20
2023,05,03,13,10,21.30
2023,05,03,13,11,21.30
2023,05,03,13,12,21.30
2023,05,03,13,13,21.30
2023,05,03,13,14,21.30
2023,05,03,13,15,21.20
2023,05,03,13,16,21.20
2023,05,03,13,17,21.20
2023,05,03,13,18,21.10
2023,05,03,13,19,21.10
2023,05,03,13,20,21.20
2023,05,03,13,21,21.20
2023,05,03,13,22,21.20
2023,05,03,13,23,21.30
2023,05,03,13,24,21.30
2023,05,03,13,25,21.30
2023,05,03,13,26,21.40
2023,05,03,13,27,21.40
2023,05,03,13,28,21.40
2023,05,03,13,29,21.40
2023,05,03,13,30,21.40
2023,05,03,13,31,21.50
2023,05,03,13,32,21.50
2023,05,03,13,33,21.60
2023,05,03,13,34,21.60
2023,05,03,13,35,21.70
2023,05,03,13,36,21.70
2023,05,03,13,37,21.80
2023,05,03,13,38,21.80
2023,05,03,13,39,21.80
2023,05,03,13,40,21.80
2023,05,03,13,41,21.80
2023,05,03,13,42,21.90
2023,05,03,13,43,21.90
2023,05,03,13,44,21.90
2023,05,03,13,45,21.90
2023,05,03,13,46,22.00
2023,05,03,13,47,22.10
2023,05,03,13,48,22.10
2023,05,03,13,49,22.10
2023,05,03,13,50,22.20
2023,05,03,13,51,22.20
2023,05,03,13,52,22.30
2023,05,03,13,53,22.30
2023,05,03,13,54,22.40
2023,05,03,13,55,22.40
2023,05,03,13,56,22.40
2023,05,03,13,57,22.40
2023,05,03,13,58,22.40
2023,05,03,13,59,22.40
2023,05,03,14,00,22.30
2023,05,03,14,01,22.20
2023,05,03,14,02,22.20
2023,05,03,14,03,22.10
2023,05,03,14,04,22.00
2023,05,03,14,05,21.80
2023,05,03,14,06,21.70
2023,05,03,14,07,21.70
2023,05,03,14,08,21.70
2023,05,03,14,09,21.70
2023,05,03,14,10,21.80
2023,05,03,14,11,21.80
2023,05,03,14,12,21.90
2023,05,03,14,13,22.00
2023,05,03,14,14,22.00
2023,05,03,14,15,22.10
2023,05,03,14,16,22.10
2023,05,03,14,17,22.10
2023,05,03,14,18,22.20
2023,05,03,14,19,22.10
2023,05,03,14,20,22.10
2023,05,03,14,21,22.10
2023,05,03,14,22,22.10
2023,05,03,14,23,22.10
2023,05,03,14,24,22.00
2023,05,03,14,25,21.90
2023,05,03,14,26,21.90
2023,05,03,14,27,21.90
2023,05,03,14,28,22.00
2023,05,03,14,29,22.00
2023,05,03,14,30,22.10
2023,05,03,14,31,22.20
2023,05,03,14,32,22.30
2023,05,03,14,33,22.30
2023,05,03,14,34,22.40
2023,05,03,14,35,22.50
2023,05,03,14,36,22.50
2023,05,03,14,37,22.60
2023,05,03,14,38,22.70
2023,05,03,14,39,22.70
2023,05,03,14,40,22.70
2023,05,03,14,41,22.80
2023,05,03,14,42,22.80
2023,05,03,14,43,22.80
2023,05,03,14,44,22.80
2023,05,03,14,45,22.70
2023,05,03,14,46,22.70
2023,05,03,14,47,22.70
2023,05,03,14,48,22.60
2023,05,03,14,49,22.60
2023,05,03,14,50,22.50
2023,05,03,14,51,22.50
2023,05,03,14,52,22.40
2023,05,03,14,53,22.40
2023,05,03,14,54,22.40
2023,05,03,14,55,22.40
2023,05,03,14,56,22.40
2023,05,03,14,57,22.40
2023,05,03,14,58,22.30
2023,05,03,14,59,22.20
2023,05,03,15,00,22.20
2023,05,03,15,01,22.20
2023,05,03,15,02,22.30
2023,05,03,15,03,22.40
2023,05,03,15,04,22.50
2023,05,03,15,05,22.60
2023,05,03,15,06,22.70
2023,05,03,15,07,22.70
2023,05,03,15,08,22.80
2023,05,03,15,09,22.80
2023,05,03,15,10,22.80
2023,05,03,15,11,22.80
2023,05,03,15,12,22.80
2023,05,03,15,13,22.80
2023,05,03,15,14,22.80
2023,05,03,15,15,22.80
2023,05,03,15,16,22.80
2023,05,03,15,17,22.90
2023,05,03,15,18,22.90
2023,05,03,15,19,22.90
2023,05,03,15,20,22.80
2023,05,03,15,21,22.70
2023,05,03,15,22,22.70
2023,05,03,15,23,22.60
2023,05,03,15,24,22.70
2023,05,03,15,25,22.70
2023,05,03,15,26,22.80
2023,05,03,15,27,22.90
2023,05,03,15,28,22.90
2023,05,03,15,29,23.00
2023,05,03,15,30,23.00
2023,05,03,15,31,22.90
2023,05,03,15,32,22.70
2023,05,03,15,33,22.40
2023,05,03,15,34,22.20
2023,05,03,15,35,22.10
2023,05,03,15,36,22.10
2023,05,03,15,37,22.10
2023,05,03,15,38,22.20
2023,05,03,15,39,22.30
2023,05,03,15,40,22.30
2023,05,03,15,41,22.40
2023,05,03,15,42,22.40
2023,05,03,15,43,22.50
2023,05,03,15,44,22.60
2023,05,03,15,45,22.60
2023,05,03,15,46,22.60
2023,05,03,15,47,22.70
2023,05,03,15,48,22.70
2023,05,03,15,49,22.80
2023,05,03,15,50,22.80
2023,05,03,15,51,22.80
2023,05,03,15,52,22.80
2023,05,03,15,53,22.80
2023,05,03,15,54,22.80
2023,05,03,15,55,22.70
2023,05,03,15,56,22.70
2023,05,03,15,57,22.70
2023,05,03,15,58,22.70
2023,05,03,15,59,22.70
2023,05,03,16,00,22.80
2023,05,03,16,01,22.70
2023,05,03,16,02,22.70
2023,05,03,16,03,22.70
2023,05,03,16,04,22.60
2023,05,03,16,05,22.50
2023,05,03,16,06,22.60
2023,05,03,16,07,22.60
2023,05,03,16,08,22.60
2023,05,03,16,09,22.60
2023,05,03,16,10,22.60
2023,05,03,16,11,22.50
2023,05,03,16,12,22.60
2023,05,03,16,13,22.70
2023,05,03,16,14,22.80
2023,05,03,16,15,22.80
2023,05,03,16,16,22.80
2023,05,03,16,17,22.80
2023,05,03,16,18,22.90
2023,05,03,16,19,22.90
2023,05,03,16,20,22.90
2023,05,03,16,21,22.90
2023,05,03,16,22,22.90
2023,05,03,16,23,22.90
2023,05,03,16,24,22.80
2023,05,03,16,25,22.90
2023,05,03,16,26,22.90
2023,05,03,16,27,23.00
2023,05,03,16,28,23.10
2023,05,03,16,29,23.10
2023,05,03,16,30,23.20
2023,05,03,16,31,23.30
2023,05,03,16,32,23.40
2023,05,03,16,33,23.50
2023,05,03,16,34,23.60
2023,05,03,16,35,23.60
2023,05,03,16,36,23.60
2023,05,03,16,37,23.70
2023,05,03,16,38,23.70
2023,05,03,16,39,23.70
2023,05,03,16,40,23.70
2023,05,03,16,41,23.80
2023,05,03,16,42,23.80
2023,05,03,16,43,23.70
2023,05,03,16,44,23.70
2023,05,03,16,45,23.70
2023,05,03,16,46,23.60
2023,05,03,16,47,23.60
2023,05,03,16,48,23.50
2023,05,03,16,49,23.40
2023,05,03,16,50,23.30
2023,05,03,16,51,23.20
2023,05,03,16,52,23.10
2023,05,03,16,53,23.10
2023,05,03,16,54,23.20
2023,05,03,16,55,23.20
2023,05,03,16,56,23.20
2023,05,03,16,57,23.20
2023,05,03,16,58,23.30
2023,05,03,16,59,23.30
2023,05,03,17,00,23.30
2023,05,03,17,01,23.30
2023,05,03,17,02,23.40
2023,05,03,17,03,23.40
2023,05,03,17,04,23.40
2023,05,03,17,05,23.40
2023,05,03,17,06,23.40
2023,05,03,17,07,23.40
2023,05,03,17,08,23.40
2023,05,03,17,09,23.40
2023,05,03,17,10,23.50
2023,05,03,17,11,23.50
2023,05,03,17,12,23.40
2023,05,03,17,13,23.40
2023,05,03,17,14,23.40
2023,05,03,17,15,23.40
2023,05,03,17,16,23.30
2023,05,03,17,17,23.30
2023,05,03,17,18,23.30
2023,05,03,17,19,23.40